Regional Weather Roundup
Issued by NWS Wakefield, VA

Home | Current Version | Previous Version | Text Only | Print | Product List | Glossary Off
Versions: 1 2 3 4 5 6 7 8 9 10 11 12 13 14 15 16 17 18 19 20 21 22 23 24 25 26 27 28 29 30 31 32 33 34 35 36 37 38 39 40 41 42 43 44 45 46 47 48
000 ASUS41 KAKQ 280915 RWRAKQ REGIONAL WEATHER ROUNDUP NATIONAL WEATHER SERVICE WAKEFIELD VA 500 AM EDT FRI AUG 28 2015 Note: "fair" indicates few or no clouds below 12,000 feet with no significant weather and/or obstructions to visibility. * = Denotes station may not report precipitation (e.g., rain,snow,etc.), thunder or fog. VAZ042-051-052>054-056-281000- NORTHERN VIRGINIA CITY SKY/WX TMP DP RH WIND PRES REMARKS WASH NATIONAL PTCLDY 65 59 81 N6 30.16R DULLES MOCLDY 63 57 81 N3 30.16S FORT BELVOIR CLEAR 59 58 95 CALM 30.15S QUANTICO NOT AVBL FREDERICKSBRG* CLEAR 62 62 99 CALM 30.15R STAFFORD* PTCLDY 56 55 95 NW5 30.19S WARRENTON MOCLDY 58 58 100 CALM 30.16S FOG CULPEPER* MOCLDY 59 58 96 CALM 30.17S MANASSAS* CLOUDY 59 59 100 CALM 30.16S LEESBURG* MOCLDY 59 59 100 CALM 30.18S WINCHESTER CLEAR 54 54 100 CALM 30.17S FRONT ROYAL* PTSUNNY 55 55 100 CALM 30.16S LURAY* PTSUNNY 57 57 100 N3 30.17S $$ VAZ048-049-060>072-079>083-281000- CENTRAL AND SOUTH CENTRAL VIRGINIA CITY SKY/WX TMP DP RH WIND PRES REMARKS RICHMOND CLEAR 63 59 87 CALM 30.14S CHESTERFIELD* FAIR 57 45 62 NW6 30.15F PETERSBURG* CLEAR 57 57 100 CALM 30.14S FOG HANOVER CLEAR 58 57 97 CALM 30.16S TAPPAHANNOCK* CLEAR 57 55 91 CALM 30.15S FOG QUINTON* FAIR 58 57 97 CALM 30.13F CHARLOTTSVILLE CLOUDY 63 60 90 CALM 30.16S GORDONSVILLE* PTSUNNY 60 59 97 CALM 30.15S ORANGE* MOCLDY 61 59 94 CALM 30.17S LOUISA* PTCLDY 57 55 94 CALM 30.15S BUMPASS* FAIR 59 58 97 CALM 30.15S FARMVILLE* NOT AVBL CREWE* FAIR N/A N/A N/A CALM 30.14S FORT PICKETT* FAIR 58 57 97 CALM 30.15R CHASE CITY* FAIR 61 61 100 CALM 30.15R CLARKSVILLE* FAIR 59 59 100 CALM 30.14R SOUTH HILL* CLEAR 58 58 97 N3 30.19S LAWRENCEVILLE* FAIR 59 59 100 CALM 30.14R EMPORIA* CLEAR 55 55 100 NW3 30.15R FOG $$ VAZ088>098-281000- SOUTHEAST VIRGINIA CITY SKY/WX TMP DP RH WIND PRES REMARKS NORFOLK PTCLDY 74 57 55 NE7 30.10S VIRGINIA BEACH MOCLDY 70 60 70 CALM 30.09S NORFOLK NAVAL MOCLDY 74 56 53 NE7 30.12S WEST POINT* CLEAR 57 55 92 CALM 30.15S SALUDA* FAIR 69 62 78 NW6 30.13S NEWPORT NEWS CLEAR 64 60 87 CALM 30.12R LANGLEY AFB MOCLDY 63 61 91 N2 30.11R FORT EUSTIS PTCLDY 67 67 100 VRB1 30.10S WILLIAMSBURG* CLEAR 66 64 94 CALM 30.14R HR EXEC AP* N/A 61 57 88 CALM 30.13S FRANKLIN* CLOUDY 61 60 96 CALM 30.13S WAKEFIELD CLEAR 60 57 89 CALM 30.13R FOG $$ VAZ020-022-025-037-045-281000- WEST CENTRAL AND SOUTHWEST VIRGINIA CITY SKY/WX TMP DP RH WIND PRES REMARKS STAUNTON* PTCLDY 58 55 89 CALM 30.20S WAYNESBORO* FAIR 59 56 88 CALM 30.19S HOT SPRINGS VA CLOUDY 57 53 86 E5 30.24S LYNCHBURG CLEAR 58 57 97 CALM 30.18R DANVILLE CLEAR 60 58 92 NW3 30.16R SOUTH BOSTON* FAIR 58 56 95 CALM 30.15S MARTINSVILLE MOCLDY 57 57 100 CALM 30.19S FOG ROANOKE MOCLDY 62 59 90 CALM 30.19R BLACKSBURG MOCLDY 59 58 97 CALM 30.22S DUBLIN* CLOUDY 62 62 99 CALM 30.21S MARION* CLEAR 60 57 90 CALM 30.23R HILLSVILLE* CLEAR 60 58 92 S3 30.21R RICHLANDS* FAIR 63 30 29 SE3 30.19R WISE* CLEAR 57 57 100 SW3 30.20R ABINGDON* CLEAR 62 57 84 CALM 30.17R $$ MDZ021>025-VAZ099-100-281000- SOUTHERN MARYLAND AND THE DELMARVA PENINSULA CITY SKY/WX TMP DP RH WIND PRES REMARKS PATUXENT RIVER CLEAR 59 57 93 CALM 30.13F BAY BRIDGE APT N/A 64 57 77 CALM 30.15S LEONARDTOWN N/A 59 55 88 CALM 30.16R DOVER CLEAR 61 61 100 NW5 30.12S GEORGETOWN CLEAR 60 56 86 CALM 30.14S EASTON NOT AVBL CAMBRIDGE CLEAR 57 54 88 CALM 30.13S SALISBURY CLEAR 59 56 89 CALM 30.13S OCEAN CITY CLEAR 59 56 89 N7 30.12F WALLOPS ISLAND CLEAR 63 58 83 N6 30.13S ACCOMACK* CLEAR 59 59 100 NE6 30.12S $$ NCZ012>017-030>032-281000- NORTH CENTRAL AND EASTERN NORTH CAROLINA CITY SKY/WX TMP DP RH WIND PRES REMARKS ROANOKE RAPIDS FAIR 57 57 100 CALM 30.12S FOG RALEIGH PTCLDY 62 60 93 NW5 30.14R ELIZABETH CITY CLOUDY 71 65 81 N9 30.09S AHOSKIE* CLEAR 63 60 93 CALM 30.11F EDENTON* CLOUDY 65 62 87 N3 30.10S CURRITUCK* CLOUDY 73 62 68 N3 30.10S KILL DEVIL HLS CLOUDY 75 62 64 NE6 30.07S MANTEO CLOUDY 74 62 67 NE12 30.08S CAPE HATTERAS CLOUDY 74 67 78 NE9G20 30.06S TARBORO* FAIR 60 59 96 CALM 30.12S FOG GOLDSBORO PTCLDY 65 62 90 N5 30.08S WASHINGTON MOCLDY 65 63 92 CALM 30.09R GREENVILLE MOCLDY 64 63 94 N3 30.11S NEW BERN CLOUDY 70 65 84 NE6 30.07F WILMINGTON CLOUDY 69 64 84 NE9 30.05F $$ VAZ048-281000- ELSEWHERE CITY SKY/WX TMP DP RH WIND PRES REMARKS HARRISBURG PA PTCLDY 60 57 89 N3 30.15S BALTIMORE PTCLDY 58 57 97 W3 30.15S ANNAPOLIS CLEAR 68 62 81 NW6 30.14S ANDREWS AFB CLEAR 61 56 85 N5 30.15R PHILADELPHIA CLEAR 64 53 67 N5 30.16R HENDERSON NC CLEAR 59 57 93 N3 30.14R FOG GREENSBORO CLEAR 63 60 90 N3 30.14S ROCKY MOUNT CLEAR 63 61 93 NE5 30.11F $$ VAZ100-281000- MARINE STATION/POSITION TIME TEMP WIND PRES WAVE SWELL AIR SEA DIR/SP/G HT/PER HT/PER (UTC) (F) (DEG/KT/KT) (MB) (FT/S) (FT/S) BRANDYWINE LGT 0800 71 74 40/ 7/ 9 1020.5S CAPE MAY NJ 0800 66 78 40/ 2/ 4 1019.9S LEWES DE 0800 73 76 30/ 7/ 8 1020.1S 15NM E FENWICK I 0850 74 78 360/ 10/ 12 1019.8F 3/ 9 2/ 9 OCEAN-CITY-INLET 0800 67 77 330/ 4/ 5 1019.1F WACHAPREAGUE VA 0800 66 78 340/ 3/ 5 1019.9F GOOSES REEF MD 0900 74 78 70/ 8/ 10 1021.2F COVE POINT MD 0800 71 70/ 7/ 9 1021.2S SOLOMONS ISLAND 0800 81 N/A BISHOPS HEAD MD 0800 70 77 30/ 8/ 11 1019.4R PINEY POINT MD 0812 60/ 4/ 6 N/A POTOMAC MD 0900 74 79 60/ 8/ 10 1019.2F 0 CAMBRIDGE MD 0800 69 79 40/ 5/ 7 1019.7R LEWISETTA VA 0800 74 79 50/ 4/ 7 1020.0R RAPPAHANNOCK LGT 0800 40/ 12/ 13 1020.2F STINGRAY PT 0900 76 79 40/ 10/ 14 1020.3R 1/ 2 YORK RVR RNG VA 0800 75 40/ 10/ 11 1019.0F YORKTOWN VA 0800 71 80 10/ 8/ 9 1019.3F JAMESTOWN VA 0900 68 81 10/ 6/ 8 N/A DOMINION TERM VA 0800 72 30/ 3/ 5 1019.4F KIPTOPEKE VA 0800 78 50/ 5/ 6 N/A CHES BAY BRIDGE 0800 76 79 20/ 11/ 13 1018.9F CAPE HENRY VA 0800 75 20/ 12/ 13 N/A CHESAPEAKE LGHT 0800 76 40/ 9/ 11 1019.8F WILLOUBY STN VA 0800 76 40/ 11/ 13 1020.3F CAPE HENRY BUOY 0828 78 N/A 3/10 2/12 1ST LANDING BUOY 0900 78 1019.0F 2/ 4 CAPE CHARLES BUO 0826 78 N/A 3/10 3/10 OFFSHORE WE BUOY 0811 78 N/A 3/ 9 3/ 9 64NM E OF VA BCH 0850 76 79 40/ 16/ 17 1018.1F 4/ 9 3/ 9 DUCK PIER NC 0800 76 78 40/ 15/ 17 1017.8F 44100 DUCK FRF 0824 78 N/A 4/ 9 2/12 44056 DUCK FRF 0811 78 N/A 4/12 2/12 OREGON INLET NC 0800 76 77 30/ 12/ 18 1018.1F HATTERAS NC 0800 75 80 30/ 11/ 14 1017.4F DIAMOND SHLS NC 0850 78 82 40/ 19/ 23 1016.9F 4/ 8 3/ 8

USA.gov is the U.S. government's official web portal to all federal, state and local government web resources and services.